Regional Weather Roundup
Issued by NWS

Home | Current Version | Previous Version | Text Only | Print | Product List | Glossary On
Versions: 1 2 3 4 5 6 7 8 9 10 11 12 13 14 15 16 17 18 19 20 21 22 23 24 25 26 27 28 29 30 31 32 33 34 35 36 37 38 39 40 41 42 43 44 45 46 47 48 49 50
000
ASUS43 KTOP 292359
RWRKS

WEATHER ROUNDUP FOR KANSAS
NATIONAL WEATHER SERVICE GOODLAND KS
700 PM CDT MON SEP 29 2014

NOTE:  "FAIR" INDICATES FEW OR NO CLOUDS BELOW 12,000 FEET WITH NO
SIGNIFICANT WEATHER AND/OR OBSTRUCTIONS TO VISIBILITY.

KSZ001>006-013>018-027>032-041>047-300100-
NORTHWEST KANSAS

CITY           SKY/WX    TMP DP  RH WIND       PRES   REMARKS
GOODLAND       PTCLDY    75  52  44 S25G39    29.80S
6HR MIN TEMP:  75; 6HR MAX TEMP:  83;

HAYS           PTCLDY    79  55  44 SE21G26   29.88F
HILL CITY      MOCLDY    81  52  36 SE13G23   29.86F
6HR MIN TEMP:  81; 6HR MAX TEMP:  85;

RUSSELL        CLEAR     77  55  46 S13       29.88F
6HR MIN TEMP:  77; 6HR MAX TEMP:  83;

$$

KSZ061>065-074>080-084>089-300100-
SOUTHWEST KANSAS

CITY           SKY/WX    TMP DP  RH WIND       PRES   REMARKS
DODGE CITY     PTCLDY    78  51  38 S17G26    29.90S
6HR MIN TEMP:  78; 6HR MAX TEMP:  85;

ELKHART          N/A     76  53  44 SE23        N/A
GARDEN CITY    CLEAR     78  51  38 S18G32    29.86F
6HR MIN TEMP:  78; 6HR MAX TEMP:  84;

GREAT BEND     CLEAR     79  54  41 SE15      29.89F
LIBERAL        PTCLDY    79  52  38 SE18      29.88F
$$

KSZ066>073-081>083-090>101-300100-
SOUTHEAST KANSAS

CITY           SKY/WX    TMP DP  RH WIND       PRES   REMARKS
CHANUTE        CLEAR     76  62  62 S6        29.95F
6HR MIN TEMP:  76; 6HR MAX TEMP:  84;

COFFEYVILLE    CLEAR     79  61  53 SE3       29.94F
6HR MIN TEMP:  79; 6HR MAX TEMP:  86;

HUTCHINSON     CLEAR     80  54  40 SE9       29.92F
6HR MIN TEMP:  80; 6HR MAX TEMP:  87;

MEDICINE LODGE   N/A     81  54  39 SE9       29.90F
NEWTON         CLEAR     77  54  44 SE9       29.95F
PARSONS        CLEAR     76  63  64 CALM      29.96F
6HR MIN TEMP:  76; 6HR MAX TEMP:  86;

WICHITA INTL   CLEAR     80  55  42 SE12      29.92F
6HR MIN TEMP:  80; 6HR MAX TEMP:  88;

WICHITA JABRA  CLEAR     79  54  41 MISG      29.93S
6HR MIN TEMP:  79; 6HR MAX TEMP:  85;

WINFIELD       CLEAR     79  58  48 SE6       29.94F
6HR MIN TEMP:  79; 6HR MAX TEMP:  86;

$$

KSZ007>012-019>026-033>040-048>060-102>105-300100-
NORTHEAST KANSAS

CITY           SKY/WX    TMP DP  RH WIND       PRES   REMARKS
CONCORDIA      CLEAR     74  57  55 SE6       29.91F
6HR MIN TEMP:  74; 6HR MAX TEMP:  83;

EMPORIA        CLEAR     75  60  59 SE7       29.95S
6HR MIN TEMP:  75; 6HR MAX TEMP:  83;

LAWRENCE       CLEAR     76  60  57 E6        29.95S
6HR MIN TEMP:  76; 6HR MAX TEMP:  85;

MANHATTAN      CLEAR     80  58  46 SE8       29.92F
6HR MIN TEMP:  80; 6HR MAX TEMP:  88;

OLATHE IND     CLEAR     77  59  53 E6        29.97S
6HR MIN TEMP:  77; 6HR MAX TEMP:  84;

OLATHE EXE     CLEAR     78  59  51 SE3       29.96F
6HR MIN TEMP:  78; 6HR MAX TEMP:  84;

SALINA         CLEAR     79  58  48 SE8       29.91F
6HR MIN TEMP:  79; 6HR MAX TEMP:  85;

TOPEKA BILLARD CLEAR     77  60  55 SE6       29.94S
6HR MIN TEMP:  77; 6HR MAX TEMP:  89;

TOPEKA FORBES  CLEAR     76  59  55 SE5       29.95S
6HR MIN TEMP:  76; 6HR MAX TEMP:  86;

$$


USA.gov is the U.S. government's official web portal to all federal, state and local government web resources and services.